GW5072 Weather Reports


Display with metric or nautical units.
time (UTC)temp
F
wind
direction
speed
MPH
gust
MPH
rain 1hr
in
rain 24hr
in
rain mn
in
humidity
%
barometer
mb
20260506095505 75 180 0.0 3.0 0.00 0.00 0.00 92 1008.9
20260506095004 75 75 0.0 4.0 0.00 0.00 0.00 92 1008.7
20260506094525 75 82 0.0 4.0 0.00 0.00 0.00 92 1008.6
20260506094006 75 131 0.0 1.0 0.00 0.00 0.00 92 1008.4
20260506093512 75 117 0.0 2.0 0.00 0.00 0.00 92 1008.5
20260506093024 75 117 0.0 3.0 0.00 0.00 0.00 92 1008.4
20260506092507 75 151 0.0 3.0 0.00 0.00 0.00 92 1008.4
20260506092010 75 124 0.0 4.0 0.00 0.00 0.00 92 1008.4
20260506091522 75 222 0.0 4.0 0.00 0.00 0.00 92 1008.4
20260506091007 75 105 0.0 4.0 0.00 0.00 0.00 92 1008.5
20260506090509 75 235 0.0 4.0 0.00 0.00 0.00 92 1008.5
20260506090019 75 91 0.0 5.0 0.00 0.00 0.00 91 1008.4
20260506085509 75 81 0.0 5.0 0.00 0.00 0.00 91 1008.4
20260506085006 75 113 0.0 2.0 0.00 0.00 0.00 91 1008.5
20260506084523 75 92 0.0 3.0 0.00 0.00 0.00 91 1008.4
20260506084008 75 116 0.0 5.0 0.00 0.00 0.00 91 1008.3
20260506083507 75 115 0.0 5.0 0.00 0.00 0.00 91 1008.5
20260506083029 75 108 1.0 5.0 0.00 0.00 0.00 91 1008.5
20260506082506 75 262 0.0 4.0 0.00 0.00 0.00 91 1008.6
20260506082009 75 216 0.0 4.0 0.00 0.00 0.00 91 1008.6
20260506081528 75 109 0.0 2.0 0.00 0.00 0.00 91 1008.6
20260506081015 75 111 0.0 2.0 0.00 0.00 0.00 91 1008.6
20260506080504 75 246 0.0 1.0 0.00 0.00 0.00 91 1008.7
20260506073509 76 113 0.0 2.0 0.00 0.00 0.00 91 1009.1
20260506073025 76 212 0.0 3.0 0.00 0.00 0.00 91 1009.2
20260506072504 76 96 0.0 3.0 0.00 0.00 0.00 91 1009.3
20260506072015 76 215 0.0 2.0 0.00 0.00 0.00 91 1009.4
20260506071522 76 117 0.0 2.0 0.00 0.00 0.00 91 1009.5
20260506071012 76 121 0.0 2.0 0.00 0.00 0.00 91 1009.6
20260506070510 76 212 0.0 1.0 0.00 0.00 0.00 90 1009.5
20260506062512 76 83 0.0 1.0 0.00 0.00 0.00 90 1009.7
20260506062008 76 241 0.0 2.0 0.00 0.00 0.00 90 1009.7
20260506061510 76 266 0.0 2.0 0.00 0.00 0.00 90 1009.7
20260506061004 76 207 0.0 5.0 0.00 0.00 0.00 90 1009.7
20260506060501 76 126 0.0 5.0 0.00 0.00 0.00 90 1009.8
20260506051003 76 111 0.0 6.0 0.00 0.00 0.00 88 1009.4
20260506050503 76 94 0.0 6.0 0.00 0.00 0.00 88 1009.4
20260506045004 77 111 0.0 3.0 0.00 0.00 0.00 88 1009.5
20260506044519 77 207 0.0 3.0 0.00 0.00 0.00 88 1009.5
20260506044005 77 248 0.0 4.0 0.00 0.00 0.00 88 1009.4
20260506043506 77 199 0.0 4.0 0.00 0.00 0.00 88 1009.5
20260506043014 77 217 0.0 4.0 0.00 0.00 0.00 87 1009.3
20260506042502 77 108 1.0 3.0 0.00 0.00 0.00 87 1009.4
20260506042003 77 309 0.0 3.0 0.00 0.00 0.00 87 1009.4
20260506041514 77 144 0.0 3.0 0.00 0.00 0.00 87 1009.5
20260506041002 77 205 0.0 3.0 0.00 0.00 0.00 87 1009.5
20260506040507 77 107 0.0 6.0 0.00 0.00 0.00 87 1009.6
20260506040020 77 207 1.0 6.0 0.00 0.00 0.00 87 1009.5
20260506035503 77 238 0.0 2.0 0.00 0.00 0.00 87 1009.3
20260506035007 77 241 0.0 2.0 0.00 0.00 0.00 87 1009.2
20260506034510 77 252 0.0 2.0 0.00 0.00 0.00 87 1009.2
20260506034002 77 110 0.0 1.0 0.00 0.00 0.00 87 1009.2
20260506033505 77 115 0.0 1.0 0.00 0.00 0.00 87 1009.2
20260506033007 77 192 0.0 1.0 0.00 0.00 0.00 86 1009.2
20260506032507 77 229 0.0 1.0 0.00 0.00 0.00 86 1009.1
20260506032006 77 288 0.0 1.0 0.00 0.00 0.00 86 1009.0
20260506031504 77 288 0.0 3.0 0.00 0.00 0.00 86 1009.0
20260506031004 77 288 0.0 3.0 0.00 0.00 0.00 86 1009.0
20260506030505 77 176 0.0 3.0 0.00 0.00 0.00 86 1009.0
20260506030004 77 198 0.0 6.0 0.00 0.00 0.00 85 1008.9
20260506025506 77 208 0.0 6.0 0.00 0.00 0.00 85 1008.9
20260506025003 77 176 0.0 6.0 0.00 0.00 0.00 85 1008.8
20260506024525 77 247 0.0 6.0 0.00 0.00 0.00 85 1008.7
20260506024006 77 254 0.0 3.0 0.00 0.00 0.00 85 1008.7
20260506023502 77 255 0.0 3.0 0.00 0.00 0.00 85 1008.6
20260506023026 77 262 0.0 4.0 0.00 0.00 0.00 85 1008.4
20260506022505 77 311 0.0 4.0 0.00 0.00 0.00 85 1008.4
20260506022012 77 136 0.0 3.0 0.00 0.00 0.00 85 1008.3
20260506021529 77 219 0.0 3.0 0.00 0.00 0.00 85 1008.3
20260506021002 77 192 0.0 1.0 0.00 0.00 0.00 85 1008.1
20260506020507 77 245 0.0 1.0 0.00 0.00 0.00 85 1008.1
20260506020010 77 132 0.0 0.0 0.00 0.00 0.00 85 1008.0
20260506015503 77 163 0.0 1.0 0.00 0.00 0.00 85 1008.0
20260506015007 77 230 0.0 1.0 0.00 0.00 0.00 84 1007.9
20260506014508 77 230 0.0 0.0 0.00 0.00 0.00 84 1007.8
20260506014007 78 249 0.0 4.0 0.00 0.00 0.00 84 1007.8
20260506013506 78 248 0.0 4.0 0.00 0.00 0.00 84 1007.7
20260506013007 78 250 0.0 4.0 0.00 0.00 0.00 84 1007.6
20260506012506 78 257 0.0 3.0 0.00 0.00 0.00 84 1007.5
20260506012004 78 224 0.0 3.0 0.00 0.00 0.00 83 1007.5
20260506011507 78 221 0.0 2.0 0.00 0.00 0.00 83 1007.4
20260506011008 78 214 0.0 1.0 0.00 0.00 0.00 83 1007.3
20260506010505 79 214 0.0 4.0 0.00 0.00 0.00 82 1007.3
20260506010041 79 221 0.0 7.0 0.00 0.00 0.00 82 1007.3
20260506005506 79 174 0.0 7.0 0.00 0.00 0.00 82 1007.1
20260506005003 79 169 0.0 5.0 0.00 0.00 0.00 81 1006.9
20260506004525 79 106 0.0 4.0 0.00 0.00 0.00 81 1007.0
20260506004004 79 121 0.0 4.0 0.00 0.00 0.00 81 1007.0
20260506003509 79 244 0.0 3.0 0.00 0.00 0.00 81 1007.1
20260506003020 79 93 0.0 3.0 0.00 0.00 0.00 81 1007.0
20260506002507 80 101 0.0 2.0 0.00 0.00 0.00 81 1007.1
20260506002009 80 128 0.0 1.0 0.00 0.00 0.00 81 1007.1
20260506001515 80 178 0.0 3.0 0.00 0.00 0.00 81 1007.0
20260506001003 80 195 0.0 3.0 0.00 0.00 0.00 81 1007.0
20260506000507 80 263 0.0 2.0 0.00 0.00 0.00 80 1007.3
20260506000015 81 291 0.0 2.0 0.00 0.00 0.00 80 1007.2
20260505235509 81 98 0.0 2.0 0.00 0.00 0.00 80 1006.9
20260505235007 81 117 1.0 2.0 0.00 0.00 0.00 79 1006.8
20260505234525 81 156 0.0 1.0 0.00 0.00 0.00 79 1007.0
20260505234007 82 223 0.0 1.0 0.00 0.00 0.00 79 1007.0
20260505233503 82 268 0.0 3.0 0.00 0.00 0.00 78 1006.9
20260505233010 82 269 0.0 5.0 0.00 0.00 0.00 78 1006.8
20260505232510 82 122 0.0 5.0 0.00 0.00 0.00 78 1006.7
20260505232007 82 200 1.0 9.0 0.00 0.00 0.00 78 1006.8
20260505231531 82 98 1.0 9.0 0.00 0.00 0.00 77 1006.7
20260505231006 82 199 0.0 5.0 0.00 0.00 0.00 78 1006.7
20260505230504 82 115 0.0 5.0 0.00 0.00 0.00 77 1006.9
20260505230025 82 26 0.0 5.0 0.00 0.00 0.00 77 1007.0
20260505225508 82 274 1.0 6.0 0.00 0.00 0.00 77 1006.9
20260505225006 82 190 1.0 6.0 0.00 0.00 0.00 76 1007.0
20260505224522 82 240 1.0 5.0 0.00 0.00 0.00 77 1006.9
20260505224006 83 107 0.0 5.0 0.00 0.00 0.00 79 1006.9
20260505223519 82 279 0.0 5.0 0.00 0.00 0.00 78 1006.8
20260505223020 82 205 1.0 5.0 0.00 0.00 0.00 77 1006.7
20260505222509 82 262 2.0 7.0 0.00 0.00 0.00 76 1006.8
20260505222008 83 103 1.0 7.0 0.00 0.00 0.00 76 1007.0
20260505221517 83 107 0.0 6.0 0.00 0.00 0.00 77 1006.9
20260505221016 83 98 2.0 6.0 0.00 0.00 0.00 76 1006.9
20260505220508 83 154 0.0 7.0 0.00 0.00 0.00 77 1007.0
20260505220015 83 168 1.0 7.0 0.00 0.00 0.00 76 1007.1
20260505215508 83 211 1.0 6.0 0.00 0.00 0.00 75 1007.0
20260505215008 83 233 0.0 4.0 0.00 0.00 0.00 76 1007.2
20260505214512 83 100 0.0 5.0 0.00 0.00 0.00 77 1007.3
20260505214009 83 110 1.0 5.0 0.00 0.00 0.00 76 1007.4
20260505213503 83 195 1.0 4.0 0.00 0.00 0.00 76 1007.5
20260505213024 83 220 0.0 7.0 0.00 0.00 0.00 76 1007.6
20260505212515 83 228 2.0 7.0 0.00 0.00 0.00 75 1007.6
20260505212009 83 82 1.0 5.0 0.00 0.00 0.00 77 1007.7
20260505211526 83 285 1.0 6.0 0.00 0.00 0.00 76 1007.8
20260505211006 83 276 1.0 6.0 0.00 0.00 0.00 75 1007.8
20260505210503 84 206 0.0 5.0 0.00 0.00 0.00 76 1007.8
20260505210024 84 250 0.0 7.0 0.00 0.00 0.00 75 1007.9
20260505205504 85 39 1.0 9.0 0.00 0.00 0.00 73 1008.0
20260505205012 85 196 2.0 9.0 0.00 0.00 0.00 73 1008.0
20260505204523 85 219 2.0 7.0 0.00 0.00 0.00 73 1008.0
20260505204010 85 209 2.0 7.0 0.00 0.00 0.00 73 1008.0
20260505203512 85 126 1.0 5.0 0.00 0.00 0.00 73 1008.1
20260505203033 85 259 1.0 6.0 0.00 0.00 0.00 77 1008.2
20260505202508 84 209 1.0 6.0 0.00 0.00 0.00 75 1008.2
20260505202009 84 115 2.0 8.0 0.00 0.00 0.00 77 1008.3
20260505201525 83 255 3.0 8.0 0.00 0.00 0.00 75 1008.4
20260505201010 83 237 2.0 9.0 0.00 0.00 0.00 76 1008.3
20260505200514 83 181 2.0 9.0 0.00 0.00 0.00 76 1008.4
20260505200015 83 94 0.0 9.0 0.00 0.00 0.00 77 1008.5
20260505195511 83 195 2.0 9.0 0.00 0.00 0.00 76 1008.7
20260505195007 83 122 1.0 8.0 0.00 0.00 0.00 76 1008.7
20260505194528 83 124 0.0 8.0 0.00 0.00 0.00 76 1008.8
20260505194009 83 275 1.0 5.0 0.00 0.00 0.00 76 1008.9
20260505193505 83 135 1.0 8.0 0.00 0.00 0.00 78 1008.9
20260505193025 83 257 0.0 9.0 0.00 0.00 0.00 79 1008.9
20260505192508 82 62 1.0 10.0 0.00 0.00 0.00 77 1009.0
20260505192004 82 245 2.0 10.0 0.00 0.00 0.00 77 1009.0
20260505191527 82 219 3.0 9.0 0.00 0.00 0.00 78 1008.9
20260505191011 82 75 1.0 8.0 0.00 0.00 0.00 78 1009.0
20260505190510 82 241 2.0 5.0 0.00 0.00 0.00 78 1009.1
20260505190024 82 223 0.0 7.0 0.00 0.00 0.00 79 1009.1
20260505185507 82 264 1.0 7.0 0.00 0.00 0.00 80 1009.0
20260505185012 81 98 1.0 8.0 0.00 0.00 0.00 79 1009.2
20260505184526 82 11 2.0 11.0 0.00 0.00 0.00 78 1009.1
20260505184006 82 216 2.0 11.0 0.00 0.00 0.00 79 1009.3
20260505183511 82 86 1.0 7.0 0.00 0.00 0.00 80 1009.2
20260505183021 81 309 0.0 6.0 0.00 0.00 0.00 81 1009.2
20260505182517 81 135 1.0 6.0 0.00 0.00 0.00 82 1009.3
20260505182012 80 217 0.0 7.0 0.00 0.00 0.00 82 1009.4
20260505181521 80 249 2.0 7.0 0.00 0.00 0.00 81 1009.5
20260505181006 80 146 3.0 7.0 0.00 0.00 0.00 81 1009.5
20260505180505 80 210 2.0 5.0 0.00 0.00 0.00 81 1009.6
20260505180037 80 91 1.0 4.0 0.00 0.00 0.00 81 1009.5
20260505175504 80 149 2.0 9.0 0.00 0.00 0.00 82 1009.6
20260505175010 80 214 1.0 9.0 0.00 0.00 0.00 83 1009.6
20260505174532 79 128 0.0 6.0 0.00 0.00 0.00 83 1009.6
20260505174004 79 233 2.0 7.0 0.00 0.00 0.00 82 1009.6
20260505173506 79 208 0.0 7.0 0.00 0.00 0.00 84 1009.6
20260505173020 78 100 1.0 6.0 0.00 0.00 0.00 85 1009.6
20260505172502 78 204 2.0 8.0 0.00 0.00 0.00 84 1009.7
20260505172006 78 82 0.0 8.0 0.00 0.00 0.00 84 1009.8
20260505171516 78 226 0.0 3.0 0.00 0.00 0.00 84 1009.8
20260505171007 79 165 1.0 4.0 0.00 0.00 0.00 83 1009.8
20260505170508 79 219 0.0 4.0 0.00 0.00 0.00 84 1009.8
20260505170006 79 264 0.0 4.0 0.00 0.00 0.00 84 1009.8
20260505165509 79 183 1.0 5.0 0.00 0.00 0.00 83 1009.9
20260505165008 79 193 1.0 6.0 0.00 0.00 0.00 84 1010.0
20260505164506 78 238 2.0 6.0 0.00 0.00 0.00 84 1010.0
20260505164007 78 120 0.0 8.0 0.00 0.00 0.00 85 1009.9
20260505163504 78 207 1.0 8.0 0.00 0.00 0.00 85 1009.9
20260505163024 77 97 1.0 5.0 0.00 0.00 0.00 86 1010.1
20260505162504 77 256 2.0 7.0 0.00 0.00 0.00 85 1010.1
20260505162003 77 209 2.0 7.0 0.00 0.00 0.00 86 1009.9
20260505161521 77 212 2.0 7.0 0.00 0.00 0.00 86 1010.0
20260505161003 77 223 2.0 7.0 0.00 0.00 0.00 86 1010.0
20260505160511 77 184 1.0 6.0 0.00 0.00 0.00 86 1009.9
20260505153012 76 96 0.0 5.0 0.00 0.00 0.00 86 1009.6
20260505152512 76 196 1.0 7.0 0.00 0.00 0.00 86 1009.5
20260505152010 76 209 0.0 7.0 0.00 0.00 0.00 86 1009.6
20260505151513 76 8 1.0 6.0 0.00 0.00 0.00 86 1009.7
20260505151010 76 248 0.0 3.0 0.00 0.00 0.00 87 1009.7
20260505150510 76 263 0.0 7.0 0.00 0.00 0.00 87 1009.5
20260505140507 74 198 0.0 3.0 0.00 0.00 0.00 89 1009.4
20260505125004 71 212 0.0 4.0 0.00 0.00 0.00 92 1009.3
20260505124531 71 238 0.0 4.0 0.00 0.00 0.00 92 1009.2
20260505124007 71 299 0.0 1.0 0.00 0.00 0.00 93 1008.9
20260505123504 71 266 0.0 1.0 0.00 0.00 0.00 93 1008.7
20260505123023 70 188 0.0 3.0 0.00 0.00 0.00 93 1008.8
20260505122505 70 221 0.0 5.0 0.00 0.00 0.00 93 1008.9
20260505122007 70 229 0.0 5.0 0.00 0.00 0.00 93 1008.9
20260505121523 70 101 1.0 3.0 0.00 0.00 0.00 93 1009.0
20260505121003 70 273 0.0 4.0 0.00 0.00 0.00 93 1009.1
20260505120513 70 272 0.0 4.0 0.00 0.00 0.00 93 1009.0
20260505120020 70 260 0.0 1.0 0.00 0.00 0.00 92 1009.0
20260505115504 70 217 0.0 1.0 0.00 0.00 0.00 92 1008.8
20260505115013 70 208 0.0 1.0 0.00 0.00 0.00 92 1008.7
20260505114517 70 198 0.0 1.0 0.00 0.00 0.00 92 1008.6
20260505114012 70 244 0.0 2.0 0.00 0.00 0.00 92 1008.5
20260505113507 70 233 0.0 2.0 0.00 0.00 0.00 92 1008.5
20260505113019 70 244 0.0 2.0 0.00 0.00 0.00 92 1008.6
20260505112509 70 254 0.0 2.0 0.00 0.00 0.00 92 1009.0
20260505112004 70 217 0.0 1.0 0.00 0.00 0.00 92 1008.9
20260505111528 70 221 0.0 1.0 0.00 0.00 0.00 92 1008.8
20260505111010 70 221 0.0 3.0 0.00 0.00 0.00 92 1008.8
20260505110504 70 220 0.0 3.0 0.00 0.00 0.00 92 1008.8
20260505102010 69 221 0.0 1.0 0.00 0.00 0.00 92 1008.9
20260505101532 69 221 0.0 1.0 0.00 0.00 0.00 92 1009.0
20260505101007 69 121 0.0 0.0 0.00 0.00 0.00 92 1008.8
20260505100506 69 226 0.0 1.0 0.00 0.00 0.00 92 1008.7
20260505100023 69 226 0.0 1.0 0.00 0.00 0.00 92 1008.8